iso_date,epoch_date,Year,Hour,Min,DOY,POS_DOY,Lat,Lon,BP,Ts,Ta,has_bp,has_ts,has_ta,BuoyID,Buoy_Type,Buoy_Owner,Logistics,Hemisphere
2016-05-24T16:00:28Z,1464105629,2016,16,0,145.667,145.667,83.4166,-62.519,-999.00,-4.7,-999.0,no,yes,no,300234062444610,CALIB,YorkU,unknown,North
2016-05-24T16:30:43Z,1464107443,2016,16,30,145.688,145.688,83.4166,-62.519,-999.00,-4.7,-999.0,no,yes,no,300234062444610,CALIB,YorkU,unknown,North
2016-05-24T16:59:31Z,1464109171,2016,17,0,145.708,145.708,83.4166,-62.519,-999.00,-4.7,-999.0,no,yes,no,300234062444610,CALIB,YorkU,unknown,North
2016-05-24T17:29:45Z,1464110986,2016,17,30,145.729,145.729,83.4166,-62.519,-999.00,-4.7,-999.0,no,yes,no,300234062444610,CALIB,YorkU,unknown,North
2016-05-24T18:00:00Z,1464112800,2016,18,0,145.75,145.75,83.4166,-62.519,-999.00,-4.7,-999.0,no,yes,no,300234062444610,CALIB,YorkU,unknown,North
2016-05-24T18:30:14Z,1464114614,2016,18,30,145.771,145.771,83.4166,-62.519,-999.00,-4.7,-999.0,no,yes,no,300234062444610,CALIB,YorkU,unknown,North
2016-05-24T19:00:28Z,1464116429,2016,19,0,145.792,145.792,83.4166,-62.519,-999.00,-4.6,-999.0,no,yes,no,300234062444610,CALIB,YorkU,unknown,North
2016-05-24T19:29:16Z,1464118157,2016,19,30,145.812,145.812,83.4166,-62.519,-999.00,-4.6,-999.0,no,yes,no,300234062444610,CALIB,YorkU,unknown,North
2016-05-24T19:59:31Z,1464119971,2016,20,0,145.833,145.833,83.4166,-62.519,-999.00,-4.6,-999.0,no,yes,no,300234062444610,CALIB,YorkU,unknown,North
2016-05-24T20:29:45Z,1464121786,2016,20,30,145.854,145.854,83.4166,-62.519,-999.00,-4.6,-999.0,no,yes,no,300234062444610,CALIB,YorkU,unknown,North
2016-05-24T21:00:00Z,1464123600,2016,21,0,145.875,145.875,83.4166,-62.519,-999.00,-4.6,-999.0,no,yes,no,300234062444610,CALIB,YorkU,unknown,North
2016-05-24T21:30:14Z,1464125414,2016,21,30,145.896,145.896,83.4166,-62.519,-999.00,-4.6,-999.0,no,yes,no,300234062444610,CALIB,YorkU,unknown,North
2016-05-24T22:00:28Z,1464127229,2016,22,0,145.917,145.917,83.4166,-62.519,-999.00,-4.6,-999.0,no,yes,no,300234062444610,CALIB,YorkU,unknown,North
2016-05-24T22:30:43Z,1464129043,2016,22,30,145.938,145.938,83.4166,-62.519,-999.00,-4.6,-999.0,no,yes,no,300234062444610,CALIB,YorkU,unknown,North
2016-05-24T22:59:31Z,1464130771,2016,23,0,145.958,145.958,83.4166,-62.5192,-999.00,-4.6,-999.0,no,yes,no,300234062444610,CALIB,YorkU,unknown,North
2016-05-24T23:29:45Z,1464132586,2016,23,30,145.979,145.979,83.4166,-62.5192,-999.00,-4.6,-999.0,no,yes,no,300234062444610,CALIB,YorkU,unknown,North
2016-05-25T00:00:00Z,1464134400,2016,0,0,146.0,146.0,83.4166,-62.519,-999.00,-4.6,-999.0,no,yes,no,300234062444610,CALIB,YorkU,unknown,North
2016-05-25T00:30:14Z,1464136214,2016,0,30,146.021,146.021,83.4166,-62.5192,-999.00,-4.5,-999.0,no,yes,no,300234062444610,CALIB,YorkU,unknown,North
2016-05-25T01:00:28Z,1464138029,2016,1,0,146.042,146.042,83.4166,-62.5182,-999.00,-4.5,-999.0,no,yes,no,300234062444610,CALIB,YorkU,unknown,North
2016-05-25T01:29:16Z,1464139757,2016,1,30,146.062,146.062,83.4166,-62.519,-999.00,-4.5,-999.0,no,yes,no,300234062444610,CALIB,YorkU,unknown,North
2016-05-25T01:59:31Z,1464141571,2016,2,0,146.083,146.083,83.4166,-62.519,-999.00,-4.5,-999.0,no,yes,no,300234062444610,CALIB,YorkU,unknown,North
2016-05-25T02:29:45Z,1464143386,2016,2,30,146.104,146.104,83.4166,-62.519,-999.00,-4.5,-999.0,no,yes,no,300234062444610,CALIB,YorkU,unknown,North
2016-05-25T03:00:00Z,1464145200,2016,3,0,146.125,146.125,83.4166,-62.519,-999.00,-4.5,-999.0,no,yes,no,300234062444610,CALIB,YorkU,unknown,North
2016-05-25T03:30:14Z,1464147014,2016,3,30,146.146,146.146,83.4166,-62.519,-999.00,-4.5,-999.0,no,yes,no,300234062444610,CALIB,YorkU,unknown,North
2016-05-25T04:00:28Z,1464148829,2016,4,0,146.167,146.167,83.4166,-62.519,-999.00,-4.5,-999.0,no,yes,no,300234062444610,CALIB,YorkU,unknown,North
2016-05-25T04:30:43Z,1464150643,2016,4,30,146.188,146.188,83.4166,-62.5192,-999.00,-4.5,-999.0,no,yes,no,300234062444610,CALIB,YorkU,unknown,North
2016-05-25T04:59:31Z,1464152371,2016,5,0,146.208,146.208,83.4166,-62.5192,-999.00,-4.5,-999.0,no,yes,no,300234062444610,CALIB,YorkU,unknown,North
2016-05-25T05:29:45Z,1464154186,2016,5,30,146.229,146.229,83.4166,-62.5192,-999.00,-4.5,-999.0,no,yes,no,300234062444610,CALIB,YorkU,unknown,North
2016-05-25T06:00:00Z,1464156000,2016,6,0,146.25,146.25,83.4166,-62.5192,-999.00,-4.5,-999.0,no,yes,no,300234062444610,CALIB,YorkU,unknown,North
2016-05-25T06:30:14Z,1464157814,2016,6,30,146.271,146.271,83.4166,-62.5192,-999.00,-4.5,-999.0,no,yes,no,300234062444610,CALIB,YorkU,unknown,North
2016-05-25T07:00:28Z,1464159629,2016,7,0,146.292,146.292,83.4166,-62.5192,-999.00,-4.5,-999.0,no,yes,no,300234062444610,CALIB,YorkU,unknown,North
2016-05-25T07:29:16Z,1464161357,2016,7,30,146.312,146.312,83.4166,-62.5192,-999.00,-4.5,-999.0,no,yes,no,300234062444610,CALIB,YorkU,unknown,North
2016-05-25T07:59:31Z,1464163171,2016,8,0,146.333,146.333,83.4166,-62.5192,-999.00,-4.5,-999.0,no,yes,no,300234062444610,CALIB,YorkU,unknown,North
2016-05-25T08:29:45Z,1464164986,2016,8,30,146.354,146.354,83.4166,-62.5192,-999.00,-4.5,-999.0,no,yes,no,300234062444610,CALIB,YorkU,unknown,North
2016-05-25T09:00:00Z,1464166800,2016,9,0,146.375,146.375,83.4166,-62.5192,-999.00,-4.5,-999.0,no,yes,no,300234062444610,CALIB,YorkU,unknown,North
2016-05-25T09:30:14Z,1464168614,2016,9,30,146.396,146.396,83.4166,-62.519,-999.00,-4.5,-999.0,no,yes,no,300234062444610,CALIB,YorkU,unknown,North
2016-05-25T10:00:28Z,1464170429,2016,10,0,146.417,146.417,83.4166,-62.5192,-999.00,-4.5,-999.0,no,yes,no,300234062444610,CALIB,YorkU,unknown,North
2016-05-25T10:30:43Z,1464172243,2016,10,30,146.438,146.438,83.4166,-62.5192,-999.00,-4.5,-999.0,no,yes,no,300234062444610,CALIB,YorkU,unknown,North
2016-05-25T10:59:31Z,1464173971,2016,11,0,146.458,146.458,83.4166,-62.5192,-999.00,-4.5,-999.0,no,yes,no,300234062444610,CALIB,YorkU,unknown,North
2016-05-25T11:29:45Z,1464175786,2016,11,30,146.479,146.479,83.4166,-62.5192,-999.00,-4.5,-999.0,no,yes,no,300234062444610,CALIB,YorkU,unknown,North
2016-05-25T12:00:00Z,1464177600,2016,12,0,146.5,146.5,83.4166,-62.5192,-999.00,-4.5,-999.0,no,yes,no,300234062444610,CALIB,YorkU,unknown,North
2016-05-25T12:30:14Z,1464179414,2016,12,30,146.521,146.521,83.4166,-62.5192,-999.00,-4.5,-999.0,no,yes,no,300234062444610,CALIB,YorkU,unknown,North
2016-05-25T13:00:28Z,1464181229,2016,13,0,146.542,146.542,83.4166,-62.5192,-999.00,-4.5,-999.0,no,yes,no,300234062444610,CALIB,YorkU,unknown,North
2016-05-25T13:29:16Z,1464182957,2016,13,30,146.562,146.562,83.4166,-62.5192,-999.00,-4.5,-999.0,no,yes,no,300234062444610,CALIB,YorkU,unknown,North
2016-05-25T13:59:31Z,1464184771,2016,14,0,146.583,146.583,83.4166,-62.5192,-999.00,-4.5,-999.0,no,yes,no,300234062444610,CALIB,YorkU,unknown,North
2016-05-25T14:29:45Z,1464186586,2016,14,30,146.604,146.604,83.4166,-62.5192,-999.00,-4.5,-999.0,no,yes,no,300234062444610,CALIB,YorkU,unknown,North
2016-05-25T15:00:00Z,1464188400,2016,15,0,146.625,146.625,83.4166,-62.5192,-999.00,-4.5,-999.0,no,yes,no,300234062444610,CALIB,YorkU,unknown,North
2016-05-25T15:30:14Z,1464190214,2016,15,30,146.646,146.646,83.4166,-62.5192,-999.00,-4.5,-999.0,no,yes,no,300234062444610,CALIB,YorkU,unknown,North
2016-05-25T16:00:28Z,1464192029,2016,16,0,146.667,146.667,83.4166,-62.5192,-999.00,-4.5,-999.0,no,yes,no,300234062444610,CALIB,YorkU,unknown,North
2016-05-25T16:30:43Z,1464193843,2016,16,30,146.688,146.688,83.4166,-62.5194,-999.00,-4.5,-999.0,no,yes,no,300234062444610,CALIB,YorkU,unknown,North
2016-05-25T16:59:31Z,1464195571,2016,17,0,146.708,146.708,83.4166,-62.5192,-999.00,-4.5,-999.0,no,yes,no,300234062444610,CALIB,YorkU,unknown,North
2016-05-25T17:29:45Z,1464197386,2016,17,30,146.729,146.729,83.4166,-62.5192,-999.00,-4.5,-999.0,no,yes,no,300234062444610,CALIB,YorkU,unknown,North
2016-05-25T18:00:00Z,1464199200,2016,18,0,146.75,146.75,83.4166,-62.5192,-999.00,-4.5,-999.0,no,yes,no,300234062444610,CALIB,YorkU,unknown,North
2016-05-25T18:30:14Z,1464201014,2016,18,30,146.771,146.771,83.4166,-62.5194,-999.00,-4.5,-999.0,no,yes,no,300234062444610,CALIB,YorkU,unknown,North
2016-05-25T19:00:28Z,1464202829,2016,19,0,146.792,146.792,83.4166,-62.5194,-999.00,-4.5,-999.0,no,yes,no,300234062444610,CALIB,YorkU,unknown,North
2016-05-25T19:29:16Z,1464204557,2016,19,30,146.812,146.812,83.4166,-62.5192,-999.00,-4.5,-999.0,no,yes,no,300234062444610,CALIB,YorkU,unknown,North
2016-05-25T19:59:31Z,1464206371,2016,20,0,146.833,146.833,83.4166,-62.5194,-999.00,-4.5,-999.0,no,yes,no,300234062444610,CALIB,YorkU,unknown,North
2016-05-25T20:29:45Z,1464208186,2016,20,30,146.854,146.854,83.4166,-62.5194,-999.00,-4.5,-999.0,no,yes,no,300234062444610,CALIB,YorkU,unknown,North
2016-05-25T21:00:00Z,1464210000,2016,21,0,146.875,146.875,83.4166,-62.5192,-999.00,-4.5,-999.0,no,yes,no,300234062444610,CALIB,YorkU,unknown,North
2016-05-25T21:30:14Z,1464211814,2016,21,30,146.896,146.896,83.4166,-62.5194,-999.00,-4.4,-999.0,no,yes,no,300234062444610,CALIB,YorkU,unknown,North
2016-05-25T22:00:28Z,1464213629,2016,22,0,146.917,146.917,83.4166,-62.5196,-999.00,-4.4,-999.0,no,yes,no,300234062444610,CALIB,YorkU,unknown,North
2016-05-25T22:30:43Z,1464215443,2016,22,30,146.938,146.938,83.4166,-62.5196,-999.00,-4.4,-999.0,no,yes,no,300234062444610,CALIB,YorkU,unknown,North
2016-05-25T22:59:31Z,1464217171,2016,23,0,146.958,146.958,83.4166,-62.5194,-999.00,-4.4,-999.0,no,yes,no,300234062444610,CALIB,YorkU,unknown,North
2016-05-25T23:29:45Z,1464218986,2016,23,30,146.979,146.979,83.4166,-62.5192,-999.00,-4.4,-999.0,no,yes,no,300234062444610,CALIB,YorkU,unknown,North
2016-05-26T00:00:00Z,1464220800,2016,0,0,147.0,147.0,83.4166,-62.5192,-999.00,-4.4,-999.0,no,yes,no,300234062444610,CALIB,YorkU,unknown,North
2016-05-26T00:30:14Z,1464222614,2016,0,30,147.021,147.021,83.4166,-62.5194,-999.00,-4.4,-999.0,no,yes,no,300234062444610,CALIB,YorkU,unknown,North
2016-05-26T01:00:28Z,1464224429,2016,1,0,147.042,147.042,83.4166,-62.5192,-999.00,-4.4,-999.0,no,yes,no,300234062444610,CALIB,YorkU,unknown,North
2016-05-26T01:29:16Z,1464226157,2016,1,30,147.062,147.062,83.4166,-62.5194,-999.00,-4.4,-999.0,no,yes,no,300234062444610,CALIB,YorkU,unknown,North
2016-05-26T01:59:31Z,1464227971,2016,2,0,147.083,147.083,83.4166,-62.5192,-999.00,-4.4,-999.0,no,yes,no,300234062444610,CALIB,YorkU,unknown,North
2016-05-26T02:29:45Z,1464229786,2016,2,30,147.104,147.104,83.4166,-62.5192,-999.00,-4.4,-999.0,no,yes,no,300234062444610,CALIB,YorkU,unknown,North
2016-05-26T03:00:00Z,1464231600,2016,3,0,147.125,147.125,83.4166,-62.5192,-999.00,-4.4,-999.0,no,yes,no,300234062444610,CALIB,YorkU,unknown,North
2016-05-26T03:30:14Z,1464233414,2016,3,30,147.146,147.146,83.4166,-62.5192,-999.00,-4.4,-999.0,no,yes,no,300234062444610,CALIB,YorkU,unknown,North
2016-05-26T04:00:28Z,1464235229,2016,4,0,147.167,147.167,83.4166,-62.5194,-999.00,-4.4,-999.0,no,yes,no,300234062444610,CALIB,YorkU,unknown,North
2016-05-26T04:30:43Z,1464237043,2016,4,30,147.188,147.188,83.4166,-62.5194,-999.00,-4.4,-999.0,no,yes,no,300234062444610,CALIB,YorkU,unknown,North
2016-05-26T04:59:31Z,1464238771,2016,5,0,147.208,147.208,83.4166,-62.5192,-999.00,-4.4,-999.0,no,yes,no,300234062444610,CALIB,YorkU,unknown,North
2016-05-26T05:29:45Z,1464240586,2016,5,30,147.229,147.229,83.4166,-62.5192,-999.00,-4.4,-999.0,no,yes,no,300234062444610,CALIB,YorkU,unknown,North
2016-05-26T06:00:00Z,1464242400,2016,6,0,147.25,147.25,83.4166,-62.5192,-999.00,-4.4,-999.0,no,yes,no,300234062444610,CALIB,YorkU,unknown,North
2016-05-26T06:30:14Z,1464244214,2016,6,30,147.271,147.271,83.4166,-62.5192,-999.00,-4.4,-999.0,no,yes,no,300234062444610,CALIB,YorkU,unknown,North
2016-05-26T07:00:28Z,1464246029,2016,7,0,147.292,147.292,83.4166,-62.5192,-999.00,-4.4,-999.0,no,yes,no,300234062444610,CALIB,YorkU,unknown,North
2016-05-26T07:29:16Z,1464247757,2016,7,30,147.312,147.312,83.4166,-62.5194,-999.00,-4.4,-999.0,no,yes,no,300234062444610,CALIB,YorkU,unknown,North
2016-05-26T07:59:31Z,1464249571,2016,8,0,147.333,147.333,83.4166,-62.5192,-999.00,-4.4,-999.0,no,yes,no,300234062444610,CALIB,YorkU,unknown,North
2016-05-26T08:29:45Z,1464251386,2016,8,30,147.354,147.354,83.4166,-62.5192,-999.00,-4.4,-999.0,no,yes,no,300234062444610,CALIB,YorkU,unknown,North
2016-05-26T09:00:00Z,1464253200,2016,9,0,147.375,147.375,83.4166,-62.5192,-999.00,-4.4,-999.0,no,yes,no,300234062444610,CALIB,YorkU,unknown,North
2016-05-26T09:30:14Z,1464255014,2016,9,30,147.396,147.396,83.4166,-62.5192,-999.00,-4.4,-999.0,no,yes,no,300234062444610,CALIB,YorkU,unknown,North
2016-05-26T10:00:28Z,1464256829,2016,10,0,147.417,147.417,83.4166,-62.5192,-999.00,-4.4,-999.0,no,yes,no,300234062444610,CALIB,YorkU,unknown,North
2016-05-26T10:30:43Z,1464258643,2016,10,30,147.438,147.438,83.4166,-62.5192,-999.00,-4.4,-999.0,no,yes,no,300234062444610,CALIB,YorkU,unknown,North
2016-05-26T10:59:31Z,1464260371,2016,11,0,147.458,147.458,83.4166,-62.5192,-999.00,-4.4,-999.0,no,yes,no,300234062444610,CALIB,YorkU,unknown,North
2016-05-26T11:29:45Z,1464262186,2016,11,30,147.479,147.479,83.4166,-62.5192,-999.00,-4.4,-999.0,no,yes,no,300234062444610,CALIB,YorkU,unknown,North
2016-05-26T12:00:00Z,1464264000,2016,12,0,147.5,147.5,83.4166,-62.5192,-999.00,-4.4,-999.0,no,yes,no,300234062444610,CALIB,YorkU,unknown,North
2016-05-26T12:30:14Z,1464265814,2016,12,30,147.521,147.521,83.4166,-62.5192,-999.00,-4.4,-999.0,no,yes,no,300234062444610,CALIB,YorkU,unknown,North
2016-05-26T13:00:28Z,1464267629,2016,13,0,147.542,147.542,83.4166,-62.5192,-999.00,-4.4,-999.0,no,yes,no,300234062444610,CALIB,YorkU,unknown,North
2016-05-26T13:29:16Z,1464269357,2016,13,30,147.562,147.562,83.4166,-62.5192,-999.00,-4.3,-999.0,no,yes,no,300234062444610,CALIB,YorkU,unknown,North
2016-05-26T13:59:31Z,1464271171,2016,14,0,147.583,147.583,83.4166,-62.5192,-999.00,-4.3,-999.0,no,yes,no,300234062444610,CALIB,YorkU,unknown,North
2016-05-26T14:29:45Z,1464272986,2016,14,30,147.604,147.604,83.4166,-62.5192,-999.00,-4.3,-999.0,no,yes,no,300234062444610,CALIB,YorkU,unknown,North
2016-05-26T15:00:00Z,1464274800,2016,15,0,147.625,147.625,83.4166,-62.5192,-999.00,-4.3,-999.0,no,yes,no,300234062444610,CALIB,YorkU,unknown,North
2016-05-26T15:30:14Z,1464276614,2016,15,30,147.646,147.646,83.4166,-62.5192,-999.00,-4.3,-999.0,no,yes,no,300234062444610,CALIB,YorkU,unknown,North
2016-05-26T16:00:28Z,1464278429,2016,16,0,147.667,147.667,83.4166,-62.5192,-999.00,-4.3,-999.0,no,yes,no,300234062444610,CALIB,YorkU,unknown,North
2016-05-26T16:30:43Z,1464280243,2016,16,30,147.688,147.688,83.4166,-62.5194,-999.00,-4.3,-999.0,no,yes,no,300234062444610,CALIB,YorkU,unknown,North
2016-05-26T16:59:31Z,1464281971,2016,17,0,147.708,147.708,83.4166,-62.5192,-999.00,-4.3,-999.0,no,yes,no,300234062444610,CALIB,YorkU,unknown,North
2016-05-26T17:29:45Z,1464283786,2016,17,30,147.729,147.729,83.4166,-62.5192,-999.00,-4.3,-999.0,no,yes,no,300234062444610,CALIB,YorkU,unknown,North
2016-05-26T18:00:00Z,1464285600,2016,18,0,147.75,147.75,83.4166,-62.5192,-999.00,-4.3,-999.0,no,yes,no,300234062444610,CALIB,YorkU,unknown,North
2016-05-26T18:30:14Z,1464287414,2016,18,30,147.771,147.771,83.4166,-62.5192,-999.00,-4.3,-999.0,no,yes,no,300234062444610,CALIB,YorkU,unknown,North
2016-05-26T19:00:28Z,1464289229,2016,19,0,147.792,147.792,83.4166,-62.5192,-999.00,-4.3,-999.0,no,yes,no,300234062444610,CALIB,YorkU,unknown,North
2016-05-26T19:29:16Z,1464290957,2016,19,30,147.812,147.812,83.4166,-62.5192,-999.00,-4.2,-999.0,no,yes,no,300234062444610,CALIB,YorkU,unknown,North
2016-05-26T19:59:31Z,1464292771,2016,20,0,147.833,147.833,83.4166,-62.5192,-999.00,-4.2,-999.0,no,yes,no,300234062444610,CALIB,YorkU,unknown,North
2016-05-26T20:29:45Z,1464294586,2016,20,30,147.854,147.854,83.4166,-62.5192,-999.00,-4.2,-999.0,no,yes,no,300234062444610,CALIB,YorkU,unknown,North
2016-05-26T21:00:00Z,1464296400,2016,21,0,147.875,147.875,83.4166,-62.5192,-999.00,-4.2,-999.0,no,yes,no,300234062444610,CALIB,YorkU,unknown,North
2016-05-26T21:30:14Z,1464298214,2016,21,30,147.896,147.896,83.4166,-62.5192,-999.00,-4.2,-999.0,no,yes,no,300234062444610,CALIB,YorkU,unknown,North
2016-05-26T22:00:28Z,1464300029,2016,22,0,147.917,147.917,83.4166,-62.5194,-999.00,-4.1,-999.0,no,yes,no,300234062444610,CALIB,YorkU,unknown,North
2016-05-26T22:30:43Z,1464301843,2016,22,30,147.938,147.938,83.4166,-62.5192,-999.00,-4.1,-999.0,no,yes,no,300234062444610,CALIB,YorkU,unknown,North
2016-05-26T22:59:31Z,1464303571,2016,23,0,147.958,147.958,83.4166,-62.5192,-999.00,-4.1,-999.0,no,yes,no,300234062444610,CALIB,YorkU,unknown,North
2016-05-26T23:29:45Z,1464305386,2016,23,30,147.979,147.979,83.4166,-62.5192,-999.00,-4.1,-999.0,no,yes,no,300234062444610,CALIB,YorkU,unknown,North
2016-05-27T00:00:00Z,1464307200,2016,0,0,148.0,148.0,83.4166,-62.5192,-999.00,-4.1,-999.0,no,yes,no,300234062444610,CALIB,YorkU,unknown,North
2016-05-27T00:30:14Z,1464309014,2016,0,30,148.021,148.021,83.4166,-62.5194,-999.00,-4.1,-999.0,no,yes,no,300234062444610,CALIB,YorkU,unknown,North
2016-05-27T01:00:28Z,1464310829,2016,1,0,148.042,148.042,83.4166,-62.5192,-999.00,-4.0,-999.0,no,yes,no,300234062444610,CALIB,YorkU,unknown,North
2016-05-27T01:29:16Z,1464312557,2016,1,30,148.062,148.062,83.4166,-62.5192,-999.00,-4.0,-999.0,no,yes,no,300234062444610,CALIB,YorkU,unknown,North
2016-05-27T01:59:31Z,1464314371,2016,2,0,148.083,148.083,83.4166,-62.5192,-999.00,-4.0,-999.0,no,yes,no,300234062444610,CALIB,YorkU,unknown,North
2016-05-27T02:29:45Z,1464316186,2016,2,30,148.104,148.104,83.4166,-62.5192,-999.00,-4.0,-999.0,no,yes,no,300234062444610,CALIB,YorkU,unknown,North
2016-05-27T03:00:00Z,1464318000,2016,3,0,148.125,148.125,83.4166,-62.5192,-999.00,-4.0,-999.0,no,yes,no,300234062444610,CALIB,YorkU,unknown,North
2016-05-27T03:30:14Z,1464319814,2016,3,30,148.146,148.146,83.4166,-62.5192,-999.00,-4.0,-999.0,no,yes,no,300234062444610,CALIB,YorkU,unknown,North
2016-05-27T04:00:28Z,1464321629,2016,4,0,148.167,148.167,83.4166,-62.5192,-999.00,-4.0,-999.0,no,yes,no,300234062444610,CALIB,YorkU,unknown,North
2016-05-27T04:30:43Z,1464323443,2016,4,30,148.188,148.188,83.4166,-62.5192,-999.00,-4.0,-999.0,no,yes,no,300234062444610,CALIB,YorkU,unknown,North
2016-05-27T04:59:31Z,1464325171,2016,5,0,148.208,148.208,83.4166,-62.5192,-999.00,-4.0,-999.0,no,yes,no,300234062444610,CALIB,YorkU,unknown,North
2016-05-27T05:29:45Z,1464326986,2016,5,30,148.229,148.229,83.4166,-62.5192,-999.00,-4.0,-999.0,no,yes,no,300234062444610,CALIB,YorkU,unknown,North
2016-05-27T06:00:00Z,1464328800,2016,6,0,148.25,148.25,83.4166,-62.5192,-999.00,-4.0,-999.0,no,yes,no,300234062444610,CALIB,YorkU,unknown,North
2016-05-27T06:30:14Z,1464330614,2016,6,30,148.271,148.271,83.4166,-62.5192,-999.00,-4.0,-999.0,no,yes,no,300234062444610,CALIB,YorkU,unknown,North
2016-05-27T07:00:28Z,1464332429,2016,7,0,148.292,148.292,83.4166,-62.5194,-999.00,-4.0,-999.0,no,yes,no,300234062444610,CALIB,YorkU,unknown,North
2016-05-27T07:29:16Z,1464334157,2016,7,30,148.312,148.312,83.4166,-62.5194,-999.00,-4.0,-999.0,no,yes,no,300234062444610,CALIB,YorkU,unknown,North
2016-05-27T07:59:31Z,1464335971,2016,8,0,148.333,148.333,83.4166,-62.5192,-999.00,-4.0,-999.0,no,yes,no,300234062444610,CALIB,YorkU,unknown,North
2016-05-27T08:29:45Z,1464337786,2016,8,30,148.354,148.354,83.4166,-62.5192,-999.00,-4.0,-999.0,no,yes,no,300234062444610,CALIB,YorkU,unknown,North
2016-05-27T09:00:00Z,1464339600,2016,9,0,148.375,148.375,83.4166,-62.5194,-999.00,-4.0,-999.0,no,yes,no,300234062444610,CALIB,YorkU,unknown,North
2016-05-27T09:30:14Z,1464341414,2016,9,30,148.396,148.396,83.4166,-62.5194,-999.00,-4.0,-999.0,no,yes,no,300234062444610,CALIB,YorkU,unknown,North
2016-05-27T10:00:28Z,1464343229,2016,10,0,148.417,148.417,83.4166,-62.5194,-999.00,-4.0,-999.0,no,yes,no,300234062444610,CALIB,YorkU,unknown,North
2016-05-27T10:30:43Z,1464345043,2016,10,30,148.438,148.438,83.4166,-62.5194,-999.00,-4.0,-999.0,no,yes,no,300234062444610,CALIB,YorkU,unknown,North
2016-05-27T10:59:31Z,1464346771,2016,11,0,148.458,148.458,83.4166,-62.5194,-999.00,-4.0,-999.0,no,yes,no,300234062444610,CALIB,YorkU,unknown,North
2016-05-27T11:29:45Z,1464348586,2016,11,30,148.479,148.479,83.4166,-62.5192,-999.00,-4.0,-999.0,no,yes,no,300234062444610,CALIB,YorkU,unknown,North
2016-05-27T12:00:00Z,1464350400,2016,12,0,148.5,148.5,83.4166,-62.5192,-999.00,-4.0,-999.0,no,yes,no,300234062444610,CALIB,YorkU,unknown,North
2016-05-27T12:30:14Z,1464352214,2016,12,30,148.521,148.521,83.4166,-62.5192,-999.00,-4.0,-999.0,no,yes,no,300234062444610,CALIB,YorkU,unknown,North
2016-05-27T13:00:28Z,1464354029,2016,13,0,148.542,148.542,83.4166,-62.5192,-999.00,-4.0,-999.0,no,yes,no,300234062444610,CALIB,YorkU,unknown,North
2016-05-27T13:29:16Z,1464355757,2016,13,30,148.562,148.562,83.4166,-62.5192,-999.00,-4.0,-999.0,no,yes,no,300234062444610,CALIB,YorkU,unknown,North
2016-05-27T13:59:31Z,1464357571,2016,14,0,148.583,148.583,83.4166,-62.5192,-999.00,-4.0,-999.0,no,yes,no,300234062444610,CALIB,YorkU,unknown,North
2016-05-27T14:29:45Z,1464359386,2016,14,30,148.604,148.604,83.4166,-62.5194,-999.00,-4.0,-999.0,no,yes,no,300234062444610,CALIB,YorkU,unknown,North
2016-05-27T15:00:00Z,1464361200,2016,15,0,148.625,148.625,83.4166,-62.5192,-999.00,-4.0,-999.0,no,yes,no,300234062444610,CALIB,YorkU,unknown,North
2016-05-27T15:30:14Z,1464363014,2016,15,30,148.646,148.646,83.4166,-62.5192,-999.00,-4.0,-999.0,no,yes,no,300234062444610,CALIB,YorkU,unknown,North
2016-05-27T16:00:28Z,1464364829,2016,16,0,148.667,148.667,83.4166,-62.5194,-999.00,-4.0,-999.0,no,yes,no,300234062444610,CALIB,YorkU,unknown,North
2016-05-27T16:30:43Z,1464366643,2016,16,30,148.688,148.688,83.4166,-62.5194,-999.00,-4.0,-999.0,no,yes,no,300234062444610,CALIB,YorkU,unknown,North
2016-05-27T16:59:31Z,1464368371,2016,17,0,148.708,148.708,83.4166,-62.5194,-999.00,-4.0,-999.0,no,yes,no,300234062444610,CALIB,YorkU,unknown,North
2016-05-27T17:29:45Z,1464370186,2016,17,30,148.729,148.729,83.4166,-62.5194,-999.00,-4.0,-999.0,no,yes,no,300234062444610,CALIB,YorkU,unknown,North
2016-05-27T18:00:00Z,1464372000,2016,18,0,148.75,148.75,83.4166,-62.5194,-999.00,-4.0,-999.0,no,yes,no,300234062444610,CALIB,YorkU,unknown,North
2016-05-27T18:30:14Z,1464373814,2016,18,30,148.771,148.771,83.4166,-62.5194,-999.00,-4.0,-999.0,no,yes,no,300234062444610,CALIB,YorkU,unknown,North
2016-05-27T19:00:28Z,1464375629,2016,19,0,148.792,148.792,83.4166,-62.5192,-999.00,-4.0,-999.0,no,yes,no,300234062444610,CALIB,YorkU,unknown,North
2016-05-27T19:29:16Z,1464377357,2016,19,30,148.812,148.812,83.4166,-62.5192,-999.00,-3.9,-999.0,no,yes,no,300234062444610,CALIB,YorkU,unknown,North
2016-05-27T19:59:31Z,1464379171,2016,20,0,148.833,148.833,83.4166,-62.5192,-999.00,-3.9,-999.0,no,yes,no,300234062444610,CALIB,YorkU,unknown,North
2016-05-27T20:29:45Z,1464380986,2016,20,30,148.854,148.854,83.4166,-62.5192,-999.00,-3.9,-999.0,no,yes,no,300234062444610,CALIB,YorkU,unknown,North
2016-05-27T21:00:00Z,1464382800,2016,21,0,148.875,148.875,83.4166,-62.5194,-999.00,-3.9,-999.0,no,yes,no,300234062444610,CALIB,YorkU,unknown,North
2016-05-27T21:30:14Z,1464384614,2016,21,30,148.896,148.896,83.4166,-62.5194,-999.00,-3.9,-999.0,no,yes,no,300234062444610,CALIB,YorkU,unknown,North
2016-05-27T22:00:28Z,1464386429,2016,22,0,148.917,148.917,83.4166,-62.5194,-999.00,-3.9,-999.0,no,yes,no,300234062444610,CALIB,YorkU,unknown,North
2016-05-27T22:30:43Z,1464388243,2016,22,30,148.938,148.938,83.4166,-62.5194,-999.00,-3.9,-999.0,no,yes,no,300234062444610,CALIB,YorkU,unknown,North
2016-05-27T22:59:31Z,1464389971,2016,23,0,148.958,148.958,83.4166,-62.5194,-999.00,-3.9,-999.0,no,yes,no,300234062444610,CALIB,YorkU,unknown,North
2016-05-27T23:29:45Z,1464391786,2016,23,30,148.979,148.979,83.4166,-62.5192,-999.00,-3.9,-999.0,no,yes,no,300234062444610,CALIB,YorkU,unknown,North
2016-05-28T00:00:00Z,1464393600,2016,0,0,149.0,149.0,83.4166,-62.5194,-999.00,-3.9,-999.0,no,yes,no,300234062444610,CALIB,YorkU,unknown,North
2016-05-28T00:30:14Z,1464395414,2016,0,30,149.021,149.021,83.4166,-62.5192,-999.00,-3.9,-999.0,no,yes,no,300234062444610,CALIB,YorkU,unknown,North